User: anonymous   Login
Location: Unspecified
(0.0000°N, 0.0000°E)
Time: 12:58:32
(UTC+00:00)
Language:

PAYLOAD B - Orbit

View from above orbital plane
View from above orbital plane
View from above satellite
View from above satellite

Ground track
Ground track

The orbit data is extracted from the following two-line orbital elements,

1 27056U 01058B   17351.69682854 -.00000019  00000-0 -16953-3 0  9998
2 27056  82.5409  44.4967 0006427  41.6971 318.4608 12.60506791734934
Epoch (UTC): 17 December 2017 16:43:25
Eccentricity: 0.0006427
inclination: 82.5409°
perigee height: 1416 km
apogee height: 1426 km
right ascension of ascending node: 44.4967°
argument of perigee: 41.6971°
revolutions per day: 12.60506791
mean anomaly at epoch: 318.4608°
orbit number at epoch: 73493

The dashed part of the orbit path shows where the satellite is in the earth's shadow,  

DLR